Weather Roundup
Issued by NWS

Home | Current Version | Previous Version | Text Only | Print | Product List | Glossary On
Versions: 1 2 3 4 5 6 7 8 9 10 11 12 13 14 15 16 17 18 19 20 21 22 23 24 25 26 27 28 29 30 31 32 33 34 35 36 37 38 39 40 41 42 43 44 45 46 47 48 49 50
271
NZUS93 KARX 060610
HRRWXR

CURRENT HOURLY OBSERVATIONS ACROSS
MUCH OF THE UPPER MISSISSIPPI VALLEY
NATIONAL WEATHER SERVICE LA CROSSE WI
1200 AM CST TUE DEC 06 2016


...SOUTHEAST MINNESOTA...


CITY           SKY/WX    TMP DP  RH WIND       PRES   REMARKS
ROCHESTER      LGT SNOW  33  32  96 S17       29.73R FOG     WCI  22
ROCHESTER/MAYO CLOUDY    33  33 100 S12G21    29.73S WCI  24
WINONA         CLOUDY    36  32  87 SE6       29.77F WCI  31
AUSTIN         LGT SNOW  34  30  86 S13       29.74R WCI  25
ALBERT LEA     CLOUDY    39  37  93 SW10      29.72S WCI  32
DODGE CENTER   CLOUDY    34  32  93 S20       29.71S FOG     WCI  22
PRESTON        CLOUDY    31  29  92 S15G21    29.75F FOG     WCI  21
OWATONNA       CLOUDY    36  30  80 SW14      29.72R WCI  27
FARIBAULT      CLOUDY    37  30  75 SW17G24   29.71R WCI  28
$$

...ELSEWHERE IN MINNESOTA...


CITY           SKY/WX    TMP DP  RH WIND       PRES   REMARKS
MINNEAPOLIS    CLOUDY    39  31  72 SW16      29.67R WCI  30
INTNL FALLS    MIX PCPN  31  29  92 E15       29.49F FOG     WCI  20
DULUTH         CLOUDY    35  32  88 SE15      29.57F WCI  25
RED WING       CLOUDY    36  34  93 S10       29.70F WCI  28
REDWOOD FALLS  MOCLDY    29  20  69 W22G29    29.71R WCI  15
MANKATO        CLOUDY    34  28  79 W14       29.72R WCI  25
WORTHINGTON    CLOUDY    26  21  81 W21G30    29.74R WCI  12
FAIRMONT       CLOUDY    33  27  78 W16       29.75R WCI  23
$$

...SOUTHWEST WISCONSIN...


CITY           SKY/WX    TMP DP  RH WIND       PRES   REMARKS
LA CROSSE      CLOUDY    36  31  82 S16       29.79F WCI  26
PRAIRIE DU CHI CLOUDY    33  30  86 S7        29.84S WCI  27
BOSCOBEL       CLOUDY    33  30  88 CALM      29.85F
LONE ROCK      CLOUDY    32  29  88 SE9       29.86F WCI  24
PLATTEVILLE    CLOUDY    31  31 100 SE14      29.83F WCI  20
FORT MC COY    PTCLDY    33  31  92 S5        29.82R WCI  29
CAMP DOUGLAS   CLOUDY    32  30  93 SE12      29.80F WCI  23
MAUSTON-NEW LI CLOUDY    33  31  94 S9        29.82F WCI  25
VIROQUA        CLOUDY    32  32  99 S12       29.80R WCI  23
WIS DELLS      CLOUDY    32  30  94 SE6       29.84S FOG     WCI  26
$$

...ELSEWHERE IN WISCONSIN...


CITY           SKY/WX    TMP DP  RH WIND       PRES   REMARKS
MILWAUKEE      CLOUDY    37  33  85 S12       29.90F WCI  29
MADISON        CLOUDY    31  29  92 SE10      29.88F WCI  22
GREEN BAY      CLOUDY    36  34  93 SE12      29.88F WCI  27
EAU CLAIRE     LGT RAIN  35  30  82 S12       29.73F WCI  27
BLACK RVR FLS  FAIR      34  32  95 S3        29.80S
MEDFORD        CLEAR     29  28  93 SE8       29.76S WCI  21
WAUSAU         CLOUDY    31  29  92 SE5       29.79F WCI  26
WIS RAPIDS     CLOUDY    32  31  96 S5        29.84R WCI  27
MARSHFIELD     MOCLDY    31  29  92 SE14      29.78F FOG     WCI  21
RICE LAKE      LGT SNOW  34  32  92 SE13G22   29.71S WCI  25
$$

...NORTHEAST IOWA...


CITY           SKY/WX    TMP DP  RH WIND       PRES   REMARKS
WATERLOO       CLOUDY    33  32  96 S13       29.79F FOG     WCI  24
DUBUQUE        LGT SNOW  29  28  96 S15       29.84F FOG     WCI  18
DECORAH        CLOUDY    32  30  93 S15G22    29.78S FOG     WCI  22
MASON CITY     LGT RAIN  34  33  96 S12       29.77R FOG     WCI  25
CHARLES CITY   CLOUDY    32  32 100 S15G22    29.77S FOG     WCI  22
OELWEIN        CLOUDY    32  32 100 S14       29.80F FOG     WCI  22
$$

...ELSEWHERE IN IOWA...


CITY           SKY/WX    TMP DP  RH WIND       PRES   REMARKS
DES MOINES     LGT RAIN  39  36  89 S12       29.79R WCI  32
IOWA CITY      CLOUDY    35  31  85 SE8       29.87R WCI  29
FORT DODGE     CLOUDY    36  27  69 NW10      29.78S WCI  28
MARSHALLTOWN   CLOUDY    35  35 100 S12       29.78S FOG     WCI  27
CEDAR RAPIDS   CLOUDY    33  33 100 S10       29.83R WCI  25
$$

...NORTHERN ILLINOIS...


CITY           SKY/WX    TMP DP  RH WIND       PRES   REMARKS
CHICAGO-OHARE  CLOUDY    34  32  92 SE9       29.90F FOG     WCI  27
CHICAGO-MIDWAY PTCLDY    35  31  85 SE7       29.91F FOG     WCI  29
MOLINE         CLOUDY    35  32  88 SE13      29.84F WCI  26
ROCKFORD       FOG       31  30  96 SE9       29.92S VSB 1/2 WCI  23
PEORIA         CLOUDY    33  33 100 E7        29.85F FOG     WCI  27
$$

NOTE: "FAIR" INDICATES FEW OR NO CLOUDS BELOW 12,000 FEET WITH NO
SIGNIFICANT WEATHER AND/OR OBSTRUCTIONS TO VISIBILITY. WIND
SPEEDS ARE IN MILES-PER-HOUR.




USA.gov is the U.S. government's official web portal to all federal, state and local government web resources and services.